This is the latest recevied weather packets stored in our database for station/object KC5EZZ-2. If no packets are shown the sender has not sent any weather packets the latest 10 day(s).
| Time | Temp. | Humidity | Pressure | Rain* | Wind** | Luminosity | Snow |
|---|---|---|---|---|---|---|---|
| 1777692599 | 11.11° C | - | - | 0 mm | 0.45 m/s, 345° | - | - |
| 1777692300 | 11.67° C | - | - | 0 mm | 0.89 m/s, 13° | - | - |
| 1777691997 | 11.67° C | - | - | 0 mm | 1.79 m/s, 24° | - | - |
| 1777691698 | 11.67° C | - | - | 0 mm | 1.34 m/s, 25° | - | - |
| 1777691398 | 12.22° C | - | - | 0 mm | 1.34 m/s, 20° | - | - |
| 1777691096 | 12.22° C | - | - | 0 mm | 1.79 m/s, 38° | - | - |
| 1777690796 | 12.22° C | - | - | 0 mm | 1.79 m/s, 39° | - | - |
| 1777690497 | 12.22° C | - | - | 0 mm | 1.79 m/s, 41° | - | - |
| 1777690194 | 12.22° C | - | - | 0 mm | 1.79 m/s, 27° | - | - |
| 1777689895 | 12.22° C | - | - | 0 mm | 1.79 m/s, 14° | - | - |
| 1777689595 | 12.22° C | - | - | 0 mm | 1.34 m/s, 24° | - | - |
| 1777689353 | 12.22° C | - | - | 0 mm | 1.34 m/s, 28° | - | - |
| 1777689293 | 12.22° C | - | - | 0 mm | 1.34 m/s, 21° | - | - |
| 1777688994 | 12.22° C | - | - | 0 mm | 1.34 m/s, 28° | - | - |
| 1777688694 | 12.22° C | - | - | 0 mm | 1.79 m/s, 27° | - | - |
| 1777688392 | 12.22° C | - | - | 0 mm | 1.34 m/s, 27° | - | - |
| 1777688092 | 12.22° C | - | - | 0 mm | 2.24 m/s, 28° | - | - |
| 1777687793 | 12.78° C | - | - | 0 mm | 1.79 m/s, 23° | - | - |
| 1777687490 | 12.22° C | - | - | 0 mm | 1.34 m/s, 25° | - | - |
| 1777687364 | 12.78° C | - | - | 0 mm | 0.89 m/s, 41° | - | - |
| 1777687191 | 12.78° C | - | - | 0 mm | 0.89 m/s, 41° | - | - |
| 1777686892 | 12.78° C | - | - | 0 mm | 1.34 m/s, 28° | - | - |
| 1777686589 | 12.78° C | - | - | 0 mm | 1.34 m/s, 28° | - | - |
| 1777686290 | 12.78° C | - | - | 0 mm | 1.79 m/s, 35° | - | - |
| 1777685990 | 12.78° C | - | - | 0 mm | 1.79 m/s, 46° | - | - |
* Rain latest hour (hover to see other rain measurements)
** Current wind speed in m/s (hover to see current wind gust speed)